Location: *
(33.8649°S, 62.1526°E)
Time: 12:03:35
(UTC+00:00)

Cosmos 1943 - Pass Details

Date: 17 January 2021
Orbit: 834 x 849 km, 71.0° (Epoch: 02 March)

Event Time Altitude Azimuth Distance (km) Brightness Sun altitude
Rises 15:20:10 0° 5° (N) 3,372 6.0 -3.7°
Reaches altitude 10° 15:22:48 10° 14° (NNE) 2,444 5.2 -4.2°
Maximum altitude 15:27:47 34° 77° (ENE) 1,359 3.8 -5.1°
Drops below altitude 10° 15:32:49 10° 139° (SE) 2,468 5.5 -6.0°
Sets 15:35:28 0° 148° (SSE) 3,410 6.3 -6.5°
